Weather History for Salem, IL

Change the Weather History Date:

Friday, October 19, 2012

  Actual Average Record
Temperature  
Mean Temperature 50 °F -  
Max Temperature 53 °F 63 °F 85 °F (1963)
Min Temperature 48 °F 41 °F 24 °F (1992)
Degree Days  
Heating Degree Days 14    
Moisture  
Dew Point 40 °F    
Average Humidity 67    
Maximum Humidity 87    
Minimum Humidity 53    
Precipitation  
Precipitation 0.00 in - - ()
Sea Level Pressure  
Sea Level Pressure 29.65 in    
Wind  
Wind Speed 13 mph (WSW)    
Max Wind Speed 21 mph    
Max Gust Speed 26 mph    
Visibility 10 miles    
Events Rain    
Averages and records for this station are not official NWS values.
T = Trace of Precipitation, MM = Missing Value Source: NWS Daily Summary

Daily Weather History Graph

Daily Weather History Graph

Search for Another Location

Airport:

Trip Planner

Search our weather history database for the weather conditions in past years. The results will help you decide how hot, cold, wet, or windy it might be!

Date:

Astronomy

Oct. 19, 2012 Rise Set
Actual Time 7:09 AM CDT 6:11 PM CDT
Civil Twilight 6:42 AM CDT 6:38 PM CDT
Nautical Twilight 6:11 AM CDT 7:09 PM CDT
Astronomical Twilight 5:40 AM CDT 7:39 PM CDT
Moon 11:50 AM CDT (10/19) 9:51 PM CDT (10/19)
Length of Visible Light 11h 55m
Length of Day
11h 01m
Waxing Crescent, 24% of the Moon is Illuminated
Oct 19
Waxing Crescent
Oct 21
First Quarter
Oct 29
Full
Nov 6
Last Quarter
Nov 13
New

Hourly Weather History & Observations

Time (CDT) Temp. Dew Point Humidity Pressure Visibility Wind Dir Wind Speed Gust Speed Precip Events Conditions
1:35 AM 52.3 °F 36.3 °F 54% 29.57 in 10.0 mi WSW 16.1 mph 25.3 mph N/A Rain Rain
1:55 AM 51.8 °F 37.4 °F 58% 29.57 in 10.0 mi SW 10.4 mph 16.1 mph N/A   Overcast
2:15 AM 52.2 °F 36.5 °F 55% 29.56 in 10.0 mi SW 10.4 mph - N/A   Overcast
2:35 AM 52.2 °F 36.5 °F 55% 29.56 in 10.0 mi SW 9.2 mph - N/A   Overcast
2:55 AM 52.3 °F 36.5 °F 55% 29.55 in 10.0 mi SW 9.2 mph - N/A   Overcast
3:15 AM 52.2 °F 36.9 °F 56% 29.55 in 10.0 mi SW 9.2 mph - N/A   Overcast
3:35 AM 52.5 °F 36.7 °F 55% 29.55 in 10.0 mi SW 11.5 mph 16.1 mph N/A   Overcast
3:55 AM 53.1 °F 36.1 °F 53% 29.55 in 10.0 mi WSW 20.7 mph 26.5 mph N/A   Overcast
4:15 AM 52.0 °F 37.8 °F 58% 29.55 in 10.0 mi West 15.0 mph 23.0 mph N/A Rain Light Rain
4:35 AM 51.4 °F 38.3 °F 61% 29.55 in 10.0 mi WSW 13.8 mph 18.4 mph N/A   Overcast
4:55 AM 51.8 °F 37.4 °F 58% 29.56 in 10.0 mi WSW 10.4 mph 19.6 mph N/A   Overcast
5:15 AM 51.6 °F 38.1 °F 60% 29.56 in 10.0 mi SW 8.1 mph - N/A   Overcast
5:35 AM 52.0 °F 37.6 °F 58% 29.56 in 10.0 mi WSW 10.4 mph 16.1 mph N/A   Overcast
5:55 AM 51.8 °F 37.9 °F 59% 29.55 in 10.0 mi WSW 6.9 mph - N/A   Overcast
6:15 AM 51.4 °F 38.5 °F 61% 29.55 in 10.0 mi WSW 10.4 mph - N/A   Overcast
6:35 AM 51.1 °F 38.5 °F 62% 29.56 in 10.0 mi West 17.3 mph 21.9 mph N/A   Overcast
6:55 AM 50.0 °F 39.2 °F 66% 29.56 in 10.0 mi WSW 15.0 mph 20.7 mph N/A   Overcast
7:15 AM 50.0 °F 39.0 °F 66% 29.57 in 10.0 mi WSW 13.8 mph 19.6 mph N/A   Overcast
7:35 AM 49.5 °F 40.1 °F 70% 29.57 in 10.0 mi West 10.4 mph - N/A Rain Light Rain
7:55 AM 49.5 °F 40.1 °F 70% 29.57 in 10.0 mi WSW 6.9 mph - N/A Rain Light Rain
8:15 AM 49.6 °F 40.1 °F 70% 29.58 in 10.0 mi WSW 10.4 mph - N/A   Light Drizzle
8:35 AM 50.0 °F 39.6 °F 67% 29.58 in 10.0 mi WSW 16.1 mph 21.9 mph N/A   Overcast
8:55 AM 50.0 °F 39.7 °F 68% 29.59 in 10.0 mi WSW 12.7 mph 18.4 mph N/A Rain Light Rain
9:15 AM 50.0 °F 40.1 °F 69% 29.58 in 10.0 mi WSW 16.1 mph - N/A   Light Drizzle
9:35 AM 50.0 °F 40.6 °F 70% 29.58 in 10.0 mi WSW 17.3 mph - N/A   Light Drizzle
9:55 AM 50.0 °F 40.3 °F 69% 29.59 in 10.0 mi WSW 15.0 mph - N/A   Overcast
10:15 AM 48.9 °F 41.4 °F 75% 29.60 in 4.0 mi West 11.5 mph - N/A Rain Rain
10:35 AM 48.7 °F 44.2 °F 84% 29.61 in 7.0 mi West 9.2 mph - N/A Rain Light Rain
10:55 AM 49.8 °F 44.8 °F 83% 29.62 in 4.0 mi West 11.5 mph - N/A Rain Rain
11:15 AM 48.2 °F 44.6 °F 87% 29.62 in 4.0 mi West 6.9 mph - N/A Rain Rain
11:35 AM 49.1 °F 45.5 °F 87% 29.63 in 5.0 mi West 9.2 mph - N/A Rain Light Rain
11:55 AM 50.5 °F 46.0 °F 85% 29.63 in 10.0 mi West 11.5 mph - N/A   Light Drizzle
12:15 PM 52.0 °F 43.5 °F 73% 29.62 in 10.0 mi WSW 16.1 mph 20.7 mph N/A   Overcast
12:35 PM 52.7 °F 42.3 °F 68% 29.62 in 10.0 mi West 16.1 mph 25.3 mph N/A   Overcast
12:55 PM 52.0 °F 40.8 °F 66% 29.63 in 10.0 mi West 18.4 mph 25.3 mph N/A   Overcast
1:15 PM 51.8 °F 40.6 °F 66% 29.64 in 10.0 mi West 18.4 mph 25.3 mph N/A   Overcast
1:35 PM 52.3 °F 40.8 °F 65% 29.64 in 10.0 mi West 17.3 mph 20.7 mph N/A   Overcast
1:55 PM 51.8 °F 41.0 °F 67% 29.65 in 10.0 mi West 17.3 mph 21.9 mph N/A   Overcast
2:15 PM 51.3 °F 40.5 °F 67% 29.66 in 10.0 mi West 13.8 mph 24.2 mph N/A   Overcast
2:35 PM 52.7 °F 40.6 °F 64% 29.67 in 10.0 mi West 17.3 mph 24.2 mph N/A   Overcast
2:55 PM 53.6 °F 41.0 °F 62% 29.67 in 10.0 mi West 17.3 mph 20.7 mph N/A   Overcast
3:15 PM 52.2 °F 41.7 °F 68% 29.68 in 10.0 mi West 19.6 mph 26.5 mph N/A   Overcast
3:35 PM 53.4 °F 41.5 °F 64% 29.69 in 10.0 mi West 19.6 mph 24.2 mph N/A   Overcast
3:55 PM 53.4 °F 41.7 °F 65% 29.69 in 10.0 mi West 18.4 mph 24.2 mph N/A   Overcast
4:15 PM 53.6 °F 41.0 °F 62% 29.70 in 10.0 mi West 18.4 mph 25.3 mph N/A   Overcast
4:35 PM 53.6 °F 41.2 °F 63% 29.70 in 10.0 mi West 16.1 mph - N/A   Overcast
4:55 PM 53.2 °F 41.2 °F 64% 29.71 in 10.0 mi West 12.7 mph - N/A   Overcast
5:15 PM 53.6 °F 40.6 °F 62% 29.71 in 10.0 mi West 15.0 mph 20.7 mph N/A   Overcast
5:35 PM 53.1 °F 41.0 °F 64% 29.72 in 10.0 mi West 12.7 mph 17.3 mph N/A   Overcast
5:55 PM 52.7 °F 41.0 °F 64% 29.73 in 10.0 mi West 12.7 mph - N/A   Overcast
6:15 PM 52.2 °F 41.2 °F 66% 29.74 in 10.0 mi WSW 10.4 mph - N/A   Overcast
6:35 PM 52.0 °F 41.2 °F 67% 29.74 in 10.0 mi West 11.5 mph - N/A   Overcast
6:55 PM 51.8 °F 42.1 °F 69% 29.75 in 10.0 mi WSW 9.2 mph - N/A   Overcast
7:15 PM 52.0 °F 42.1 °F 69% 29.75 in 10.0 mi WSW 8.1 mph - N/A   Overcast
7:35 PM 52.2 °F 41.7 °F 68% 29.76 in 10.0 mi WSW 10.4 mph - N/A   Overcast
7:55 PM 52.0 °F 41.7 °F 68% 29.76 in 10.0 mi WSW 6.9 mph - N/A   Overcast
8:15 PM 52.0 °F 41.4 °F 67% 29.76 in 10.0 mi WSW 9.2 mph 16.1 mph N/A   Overcast
8:35 PM 51.4 °F 42.1 °F 70% 29.77 in 10.0 mi WSW 9.2 mph - N/A   Overcast
8:55 PM 50.9 °F 41.7 °F 71% 29.77 in 10.0 mi WSW 9.2 mph - N/A   Mostly Cloudy
9:15 PM 50.4 °F 41.4 °F 71% 29.77 in 10.0 mi SW 8.1 mph - N/A   Scattered Clouds
9:35 PM 50.2 °F 41.2 °F 71% 29.77 in 10.0 mi WSW 8.1 mph - N/A   Scattered Clouds
9:55 PM 50.0 °F 41.0 °F 71% 29.77 in 10.0 mi WSW 8.1 mph - N/A   Mostly Cloudy
10:15 PM 50.5 °F 41.2 °F 70% 29.78 in 10.0 mi WSW 8.1 mph - N/A   Overcast
10:35 PM 50.4 °F 41.2 °F 71% 29.78 in 10.0 mi WSW 9.2 mph - N/A   Overcast
10:55 PM 49.8 °F 41.0 °F 72% 29.78 in 10.0 mi WSW 8.1 mph - N/A   Mostly Cloudy
11:15 PM 49.6 °F 41.0 °F 72% 29.78 in 10.0 mi WSW 8.1 mph - N/A   Mostly Cloudy
11:35 PM 48.9 °F 41.0 °F 74% 29.79 in 10.0 mi WSW 8.1 mph - N/A   Scattered Clouds
11:55 PM 48.6 °F 41.0 °F 75% 29.79 in 10.0 mi WSW 6.9 mph - N/A   Mostly Cloudy